Regional Weather Roundup
Issued by NWS

Home | Current Version | Previous Version | Graphics & Text | Print | Product List | Glossary On
Versions: 1 2 3 4 5 6 7 8 9 10 11 12 13 14 15 16 17 18 19 20 21 22 23 24 25 26 27 28 29 30 31 32 33 34 35 36 37 38 39 40 41 42 43 44 45 46 47 48 49 50
000
ASUS44 KMEG 131810
RWRTN
TENNESSEE HOURLY STATE WEATHER ROUNDUP
NATIONAL WEATHER SERVICE MEMPHIS TN
1200 PM CST SAT FEB 13 2016

TNZ002-004-019-021-049-052-054-088>092-131900-
WEST TENNESSEE

CITY           SKY/WX    TMP DP  RH WIND       PRES   REMARKS
MEMPHIS INTL   MOSUNNY   35   5  28 NE8       30.56F WCI  29
NWS MEMPHIS      N/A     32 N/A N/A MISG        N/A
JACKSON        MOSUNNY   29   6  38 NE7       30.58S WCI  22
DYERSBURG      SUNNY     27   5  39 NE10      30.62F WCI  17
UNION CITY     SUNNY     25   5  42 NE6       30.59F WCI  18
PARIS          SUNNY     23   3  42 N10       30.57F WCI  12
LEXINGTON      SUNNY     28   0  29 NW8       30.55F WCI  20
$$

TNZ008-025-027-028-033-062-065-066-131900-
NORTH MIDDLE TENNESSEE

CITY           SKY/WX    TMP DP  RH WIND       PRES   REMARKS
NASHVILLE      MOSUNNY   29   1  30 NW8       30.55F WCI  21
CLARKSVILLE    SUNNY     25   4  40 N8        30.58F WCI  16
SMYRNA         SUNNY     28   5  37 N9        30.56F WCI  19
COOKEVILLE     SUNNY     27   9  46 NE8       30.46F WCI  18
CROSSVILLE     SUNNY     25   5  42 NW13      30.40S WCI  14
$$

TNZ061-075-076-078-094-096-097-131900-
SOUTH MIDDLE TENNESSEE

CITY           SKY/WX    TMP DP  RH WIND       PRES   REMARKS
FAYETTEVILLE   SUNNY     32   3  29 N12       30.48F WCI  23
TULLAHOMA      SUNNY     28   1  31 NW10      30.47F WCI  19
WINCHESTER     SUNNY     28   7  40 NW9       30.47F WCI  20
MCMINNVILLE    SUNNY     27   3  36 NW8       30.47F WCI  18
COLUMBIA       SUNNY     28   7  40 N8        30.50F WCI  20
SHELBYVILLE    SUNNY     28   7  40 N8        30.52F WCI  20
$$

TNZ017-018-042-046-047-131900-
NORTHEAST TENNESSEE

CITY           SKY/WX    TMP DP  RH WIND       PRES   REMARKS
TRI CITIES     MOSUNNY   23   5  46 NW10      30.36F WCI  12
$$

TNZ012-013-036-069-073-074-131900-
CENTRAL EAST TENNESSEE

CITY           SKY/WX    TMP DP  RH WIND       PRES   REMARKS
KNOXVILLE      MOSUNNY   29   8  41 N9        30.43F WCI  20
OAK RIDGE      SUNNY     31   6  35 NW7       30.45F WCI  24
GATLINBURG     PTCLDY    27  10  50 VRB6      30.42F WCI  20
MORRISTOWN     PTCLDY    23   7  50 NW12      30.40F WCI  12
$$

TNZ083-085-099-131900-
SOUTHEAST TENNESSEE

CITY           SKY/WX    TMP DP  RH WIND       PRES   REMARKS
CHATTANOOGA    SUNNY     35   4  27 N8        30.44F WCI  29
$$

SKY/WX REPORTED AS FAIR MEANS FEW OR NO CLOUDS BELOW
12 THOUSAND FEET.




USA.gov is the U.S. government's official web portal to all federal, state and local government web resources and services.